Location: ??????
(38.0677°N, 22.9870°E)
Time: 13:16:07
(UTC+00:00)

NOAA 7 - Visible Passes

Search period start: 03 October 2024 00:00
Search period end: 13 October 2024 00:00
Orbit: 826 x 841 km, 98.9° (Epoch: 02 October)

Date Brightness Start Highest point End Pass type
(mag) Time Alt. Az. Time Alt. Az. Time Alt. Az.
03 Oct 8.0 18:14:50 10° NNE 18:14:50 10° NNE 18:14:59 10° NNE visible
03 Oct 8.4 19:56:29 12° NNW 19:56:29 12° NNW 19:56:56 10° NNW visible
04 Oct 8.3 19:39:34 13° NNW 19:39:34 13° NNW 19:40:08 10° NNW visible
05 Oct 8.2 19:22:37 13° N 19:22:37 13° N 19:23:13 10° N visible
06 Oct 8.1 19:05:41 13° N 19:05:41 13° N 19:06:11 10° N visible
07 Oct 8.1 18:48:44 11° N 18:48:44 11° N 18:49:02 10° N visible
